Total_Precipitation_Accumulation
0.01 0.06 0.18 0.42 1.21 1.60 1.41 0.73 0.50 0.38 0.35 0.45 0.45 0.40 0.47 0.61 0.80 1.20 0.64 0.22 0.07 0.03 0.06 0.11 0.14 0.12 0.12 0.14 0.15 0.18 0.18 0.17 0.15 0.14 0.12 0.10 0.08 0.09 0.10 0.13 0.14 0.16 0.19 0.18 0.16 0.16 0.15 0.14 0.13
0.02 0.08 0.23 0.63 1.50 1.99 1.47 0.68 0.42 0.29 0.37 0.51 0.60 0.55 0.45 0.46 0.34 0.25 0.27 0.36 0.11 0.03 0.03 0.06 0.12 0.13 0.12 0.12 0.14 0.16 0.17 0.16 0.15 0.14 0.13 0.12 0.13 0.13 0.14 0.15 0.17 0.18 0.19 0.18 0.16 0.14 0.14 0.12 0.12
0.04 0.10 0.29 0.72 1.12 1.27 1.04 0.55 0.31 0.29 0.37 0.55 0.61 0.46 0.39 0.48 0.34 0.20 0.19 0.24 0.12 0.07 0.05 0.06 0.10 0.12 0.12 0.12 0.13 0.15 0.16 0.16 0.16 0.15 0.15 0.14 0.15 0.16 0.18 0.19 0.21 0.21 0.19 0.17 0.16 0.14 0.11 0.11 0.13
0.05 0.13 0.34 0.54 0.57 0.50 0.42 0.33 0.29 0.32 0.41 0.44 0.51 0.50 0.36 0.37 0.31 0.22 0.21 0.20 0.14 0.11 0.09 0.11 0.12 0.12 0.12 0.12 0.12 0.13 0.14 0.14 0.16 0.16 0.17 0.17 0.17 0.19 0.23 0.23 0.23 0.23 0.19 0.15 0.15 0.13 0.10 0.11 0.13
0.05 0.18 0.40 0.43 0.32 0.32 0.33 0.33 0.33 0.38 0.43 0.54 0.65 0.68 0.59 0.36 0.29 0.37 0.44 0.38 0.26 0.18 0.15 0.16 0.18 0.18 0.16 0.14 0.15 0.15 0.15 0.15 0.17 0.19 0.20 0.18 0.19 0.22 0.24 0.24 0.22 0.22 0.19 0.15 0.15 0.17 0.14 0.17 0.20
0.07 0.19 0.25 0.26 0.22 0.25 0.31 0.31 0.32 0.39 0.50 0.73 0.75 0.69 0.64 0.49 0.44 0.48 0.48 0.61 0.57 0.32 0.24 0.21 0.24 0.25 0.22 0.20 0.21 0.20 0.18 0.19 0.19 0.18 0.19 0.19 0.21 0.22 0.21 0.22 0.24 0.24 0.22 0.18 0.15 0.15 0.17 0.22 0.25
0.11 0.22 0.17 0.18 0.15 0.19 0.20 0.29 0.39 0.44 0.55 0.73 0.64 0.60 0.76 0.77 0.65 0.59 0.54 0.63 0.58 0.40 0.37 0.32 0.25 0.24 0.25 0.28 0.30 0.28 0.24 0.25 0.24 0.20 0.19 0.19 0.22 0.22 0.22 0.23 0.28 0.27 0.24 0.23 0.22 0.17 0.17 0.20 0.23
0.06 0.11 0.09 0.13 0.12 0.15 0.14 0.19 0.34 0.48 0.55 0.55 0.59 0.76 1.07 0.96 0.63 0.60 0.64 0.62 0.59 0.56 0.52 0.49 0.43 0.37 0.30 0.29 0.33 0.35 0.32 0.31 0.27 0.25 0.24 0.26 0.29 0.29 0.30 0.27 0.33 0.34 0.31 0.31 0.31 0.28 0.25 0.28 0.31
0.03 0.06 0.07 0.07 0.08 0.12 0.13 0.19 0.28 0.42 0.47 0.56 0.74 0.80 0.85 0.70 0.55 0.69 0.82 0.86 0.92 0.83 0.71 0.61 0.54 0.48 0.40 0.31 0.30 0.36 0.37 0.37 0.33 0.36 0.36 0.40 0.52 0.62 0.65 0.61 0.65 0.64 0.60 0.57 0.55 0.54 0.50 0.44 0.37
0.03 0.05 0.06 0.04 0.05 0.08 0.11 0.19 0.35 0.47 0.57 0.83 1.16 1.21 0.92 0.75 0.70 0.80 1.03 1.10 1.34 1.12 0.80 0.70 0.58 0.52 0.42 0.35 0.44 0.51 0.53 0.55 0.53 0.65 0.70 0.87 1.05 1.06 0.85 1.01 1.10 1.07 1.10 0.99 0.96 1.13 0.95 0.73 0.65
0.01 0.02 0.01 0.02 0.03 0.04 0.09 0.16 0.25 0.40 0.77 1.26 1.36 1.19 0.94 1.01 1.01 1.01 1.27 1.35 1.32 1.17 1.12 1.05 0.85 0.73 0.66 0.71 0.64 0.70 0.80 0.93 0.90 0.90 1.04 1.30 1.23 1.06 0.96 1.05 1.35 1.50 1.57 1.50 1.56 1.67 1.33 1.29 1.48
0.00 0.00 0.01 0.02 0.03 0.03 0.04 0.08 0.17 0.40 0.89 1.05 1.02 0.95 0.90 1.10 1.13 1.22 1.50 1.57 1.60 1.47 1.70 1.76 1.43 1.33 1.19 1.03 0.92 0.84 0.86 1.04 1.18 1.35 1.39 1.55 1.62 1.51 1.35 1.37 1.55 1.71 1.85 2.18 2.15 2.05 1.91 1.86 1.78
0.00 0.00 0.00 0.01 0.03 0.06 0.04 0.08 0.26 0.59 0.80 0.69 0.59 0.82 0.89 1.21 1.50 1.68 1.86 1.77 2.00 2.08 2.28 2.45 2.01 1.88 1.75 1.70 1.53 1.25 1.31 1.41 1.49 1.67 1.78 1.87 2.04 2.04 1.97 1.89 1.82 1.69 1.81 2.15 2.36 2.26 2.29 2.21 2.06
0.00 0.00 0.01 0.01 0.02 0.04 0.07 0.16 0.37 0.65 0.59 0.55 0.71 1.11 1.31 1.28 1.56 1.94 2.07 2.14 2.44 2.60 2.70 2.81 2.67 2.64 2.46 2.21 2.15 2.05 1.76 1.73 1.74 1.77 1.76 1.94 2.17 2.42 2.51 2.40 2.26 1.95 1.86 1.94 2.25 2.36 2.51 2.42 2.29
0.00 0.01 0.04 0.06 0.07 0.06 0.10 0.34 0.52 0.66 0.55 0.58 0.82 1.17 1.51 1.43 1.58 1.86 2.05 2.50 3.17 3.49 3.35 3.33 3.30 3.49 3.28 2.86 2.55 2.27 2.11 2.07 2.12 2.12 2.02 2.14 2.35 2.54 2.55 2.36 2.01 1.80 1.84 1.94 1.89 1.95 2.25 2.07 1.94
0.01 0.04 0.14 0.16 0.11 0.10 0.17 0.57 0.72 0.69 0.82 0.90 1.08 1.25 1.52 1.55 1.58 1.80 2.27 3.01 3.80 4.28 4.16 3.93 3.52 3.72 3.66 3.37 3.12 2.80 2.52 2.54 2.42 2.16 2.07 2.05 2.22 2.18 2.23 1.89 1.52 1.58 1.77 1.84 1.87 1.83 1.95 1.95 2.00
0.03 0.07 0.14 0.22 0.16 0.13 0.23 0.81 0.85 0.64 0.90 1.16 1.08 1.23 1.44 1.60 1.72 1.84 2.40 3.20 3.94 4.62 4.78 4.71 4.54 4.19 3.93 3.74 3.55 3.34 3.13 2.78 2.37 2.15 2.06 1.88 1.69 1.64 1.73 1.50 1.38 1.44 1.58 1.66 1.60 1.79 1.92 1.85 1.91
0.06 0.09 0.15 0.22 0.18 0.16 0.29 0.62 0.72 0.74 0.89 1.05 1.05 1.08 1.18 1.43 1.81 1.94 2.25 2.94 3.75 4.53 5.02 5.12 5.08 4.67 4.20 3.73 3.32 3.20 3.00 2.73 2.45 2.19 1.95 1.64 1.43 1.36 1.52 1.41 1.28 1.38 1.49 1.52 1.67 1.81 1.89 1.67 1.62
0.06 0.09 0.18 0.24 0.17 0.19 0.34 0.52 0.66 0.77 0.99 1.13 1.15 1.09 1.10 1.41 1.83 2.05 2.33 2.73 3.47 4.16 4.79 4.85 5.01 4.44 3.79 3.22 2.81 2.64 2.39 2.14 2.10 1.96 1.77 1.63 1.44 1.36 1.48 1.33 1.25 1.22 1.30 1.29 1.41 1.52 1.55 1.30 1.48
0.09 0.12 0.20 0.22 0.15 0.17 0.34 0.60 0.79 0.88 0.86 0.93 0.96 1.00 1.08 1.46 1.92 2.28 2.80 3.13 3.12 3.61 4.27 4.25 3.87 3.55 3.09 2.62 2.40 2.22 2.12 1.87 1.69 1.52 1.42 1.27 1.17 1.18 1.20 1.19 1.05 1.04 1.13 1.11 1.18 1.30 1.31 1.16 1.38
0.12 0.14 0.18 0.16 0.15 0.22 0.40 0.75 1.03 0.97 0.74 0.67 0.72 0.77 0.92 1.27 1.77 2.20 2.61 2.99 2.94 3.25 3.33 2.89 2.59 2.53 2.43 2.20 2.08 2.02 1.95 1.76 1.46 1.18 1.06 0.99 0.93 0.90 0.88 0.87 0.89 0.94 0.90 0.96 1.04 1.18 1.32 1.20 1.15
0.08 0.08 0.07 0.07 0.13 0.28 0.42 0.94 1.32 1.12 0.84 0.70 0.70 0.81 0.88 0.98 1.16 1.47 1.79 2.21 2.40 2.42 2.29 2.15 2.04 1.99 2.11 2.08 1.86 1.70 1.40 1.25 1.09 0.92 0.92 0.92 0.82 0.75 0.71 0.71 0.80 0.87 0.88 0.98 0.87 0.92 1.11 1.20 1.07
0.05 0.04 0.05 0.08 0.13 0.27 0.47 0.79 1.18 1.17 1.12 0.97 0.83 0.86 0.78 0.72 0.79 0.99 1.10 1.31 1.59 1.76 1.74 1.64 1.84 1.91 1.90 1.84 1.77 1.71 1.45 1.22 1.10 1.08 1.11 1.02 0.90 0.77 0.69 0.67 0.67 0.76 0.85 0.91 0.90 0.93 0.94 0.99 0.96
0.04 0.05 0.12 0.25 0.37 0.69 0.68 0.73 1.07 1.02 0.98 0.96 0.78 0.66 0.61 0.56 0.61 0.78 0.84 0.88 1.00 1.10 1.16 1.23 1.45 1.64 1.66 1.61 1.58 1.58 1.48 1.33 1.16 1.07 1.01 0.93 0.88 0.80 0.72 0.69 0.71 0.69 0.70 0.74 0.79 0.83 0.84 0.89 0.91
0.05 0.09 0.32 0.69 1.00 1.17 0.72 0.70 0.89 0.78 0.79 0.85 0.65 0.42 0.38 0.42 0.44 0.53 0.59 0.64 0.70 0.72 0.78 0.88 1.06 1.22 1.33 1.38 1.38 1.38 1.47 1.33 1.13 0.94 0.92 0.86 0.75 0.71 0.70 0.68 0.75 0.79 0.77 0.75 0.76 0.78 0.84 0.90 0.94
0.06 0.07 0.19 0.34 0.49 0.70 0.74 1.09 1.02 0.65 0.62 0.53 0.35 0.24 0.22 0.34 0.35 0.34 0.36 0.39 0.48 0.48 0.55 0.64 0.72 0.82 0.94 1.13 1.27 1.18 1.23 1.12 0.99 1.04 0.97 0.84 0.69 0.70 0.82 0.83 0.81 0.81 0.82 0.81 0.91 0.89 0.91 0.95 0.96
0.05 0.05 0.06 0.10 0.16 0.44 0.82 1.17 0.96 0.55 0.50 0.36 0.24 0.18 0.20 0.24 0.30 0.29 0.26 0.25 0.29 0.31 0.36 0.46 0.61 0.74 0.78 0.86 1.06 1.13 1.06 1.01 1.03 1.07 1.01 0.91 0.82 0.73 0.80 0.84 0.87 0.85 0.84 0.88 0.99 0.98 1.01 1.08 1.06
0.06 0.06 0.06 0.07 0.15 0.33 0.69 1.05 1.08 0.80 0.57 0.35 0.26 0.25 0.30 0.27 0.32 0.35 0.26 0.21 0.25 0.27 0.31 0.42 0.53 0.70 0.84 0.83 0.83 0.88 1.03 1.08 1.13 1.11 0.94 0.86 0.83 0.80 0.79 0.77 0.81 0.84 0.85 0.92 1.07 1.08 1.13 1.24 1.25
0.08 0.08 0.09 0.10 0.12 0.21 0.52 0.76 0.66 0.63 0.45 0.33 0.34 0.40 0.28 0.24 0.27 0.30 0.23 0.21 0.25 0.27 0.32 0.40 0.50 0.74 0.89 0.81 0.82 0.90 1.00 1.06 1.10 1.23 1.14 0.98 0.90 0.85 0.79 0.74 0.75 0.75 0.76 0.84 0.98 1.11 1.21 1.30 1.31
0.10 0.10 0.11 0.14 0.16 0.17 0.27 0.48 0.40 0.45 0.41 0.48 0.53 0.48 0.36 0.32 0.27 0.29 0.27 0.30 0.30 0.34 0.37 0.45 0.53 0.69 0.79 0.80 0.84 0.88 0.94 0.97 0.98 1.03 1.08 1.08 0.97 0.88 0.83 0.81 0.79 0.68 0.66 0.76 0.88 1.02 1.19 1.31 1.38